| time (UTC) | temp F | wind direction | speed MPH | gust MPH | rain 1hr in | rain 24hr in | rain mn in | humidity % | barometer mb |
| 20260504205526 | 84 | 248 | 1.0 | 4.0 | 0.00 | 0.15 | 0.02 | 77 | 1014.6 |
| 20260504204534 | 85 | 283 | 2.0 | 4.0 | 0.00 | 0.15 | 0.02 | 77 | 1014.9 |
| 20260504203518 | 85 | 279 | 1.0 | 6.0 | 0.00 | 0.15 | 0.02 | 76 | 1014.8 |
| 20260504202524 | 84 | 279 | 1.0 | 3.0 | 0.00 | 0.15 | 0.02 | 76 | 1014.9 |
| 20260504201534 | 84 | 264 | 2.0 | 6.0 | 0.00 | 0.15 | 0.02 | 77 | 1014.9 |
| 20260504200543 | 84 | 295 | 2.0 | 4.0 | 0.00 | 0.15 | 0.02 | 78 | 1014.9 |
| 20260504195520 | 86 | 285 | 1.0 | 5.0 | 0.00 | 0.15 | 0.02 | 75 | 1015.0 |
| 20260504194532 | 86 | 293 | 1.0 | 4.0 | 0.00 | 0.15 | 0.02 | 76 | 1015.2 |
| 20260504193603 | 85 | 277 | 2.0 | 4.0 | 0.00 | 0.15 | 0.02 | 76 | 1015.1 |
| 20260504192532 | 85 | 279 | 1.0 | 6.0 | 0.00 | 0.15 | 0.02 | 78 | 1015.3 |
| 20260504191523 | 84 | 278 | 1.0 | 4.0 | 0.00 | 0.15 | 0.02 | 80 | 1015.5 |
| 20260504190534 | 82 | 282 | 1.0 | 4.0 | 0.00 | 0.15 | 0.02 | 83 | 1015.5 |
| 20260504185545 | 83 | 308 | 2.0 | 5.0 | 0.00 | 0.15 | 0.02 | 81 | 1015.7 |
| 20260504184555 | 85 | 280 | 1.0 | 6.0 | 0.00 | 0.15 | 0.02 | 79 | 1015.8 |
| 20260504183545 | 84 | 290 | 1.0 | 4.0 | 0.00 | 0.15 | 0.02 | 80 | 1015.9 |
| 20260504182533 | 84 | 272 | 1.0 | 3.0 | 0.00 | 0.15 | 0.02 | 82 | 1016.0 |
| 20260504181518 | 82 | 280 | 1.0 | 3.0 | 0.00 | 0.15 | 0.02 | 84 | 1016.1 |
| 20260504180528 | 83 | 307 | 1.0 | 4.0 | 0.00 | 0.15 | 0.02 | 82 | 1016.2 |
| 20260504175535 | 84 | 305 | 1.0 | 3.0 | 0.00 | 0.15 | 0.02 | 79 | 1016.2 |
| 20260504174545 | 85 | 289 | 2.0 | 4.0 | 0.00 | 0.16 | 0.02 | 79 | 1016.1 |
| 20260504173516 | 84 | 279 | 1.0 | 4.0 | 0.00 | 0.16 | 0.02 | 81 | 1016.2 |
| 20260504172527 | 83 | 289 | 1.0 | 3.0 | 0.00 | 0.16 | 0.02 | 80 | 1016.3 |
| 20260504171517 | 83 | 288 | 2.0 | 5.0 | 0.00 | 0.16 | 0.02 | 81 | 1016.4 |
| 20260504170528 | 82 | 250 | 0.0 | 2.0 | 0.00 | 0.16 | 0.02 | 84 | 1016.4 |
| 20260504150539 | 78 | 338 | 1.0 | 2.0 | 0.00 | 0.16 | 0.02 | 91 | 1016.8 |
| 20260504140528 | 75 | 344 | 1.0 | 4.0 | 0.00 | 0.16 | 0.02 | 97 | 1016.6 |
| 20260504130517 | 73 | 353 | 1.0 | 3.0 | 0.00 | 0.16 | 0.02 | 99 | 1016.0 |
| 20260504110516 | 71 | 348 | 0.0 | 2.0 | 0.00 | 0.19 | 0.02 | 99 | 1015.3 |
| 20260504100520 | 71 | 6 | 0.0 | 2.0 | 0.00 | 0.19 | 0.02 | 99 | 1015.0 |
| 20260504081517 | 72 | 155 | 1.0 | 3.0 | 0.01 | 0.19 | 0.02 | 99 | 1014.6 |
| 20260504080532 | 73 | 158 | 0.0 | 2.0 | 0.01 | 0.19 | 0.02 | 99 | 1014.5 |
| 20260504050535 | 73 | 0.0 | 0.0 | 0.00 | 0.17 | 0.00 | 99 | 1016.7 | |
| 20260504045529 | 73 | 0.0 | 0.0 | 0.00 | 0.17 | 0.00 | 99 | 1016.6 | |
| 20260504044524 | 73 | 0.0 | 0.0 | 0.00 | 0.17 | 0.00 | 99 | 1016.7 | |
| 20260504043517 | 73 | 0.0 | 0.0 | 0.00 | 0.17 | 0.00 | 99 | 1016.6 | |
| 20260504042552 | 73 | 128 | 0.0 | 1.0 | 0.00 | 0.17 | 0.00 | 99 | 1016.8 |
| 20260504041527 | 73 | 0.0 | 0.0 | 0.00 | 0.17 | 0.00 | 99 | 1016.5 | |
| 20260504040521 | 73 | 0.0 | 0.0 | 0.00 | 0.17 | 0.00 | 99 | 1016.3 | |
| 20260504035535 | 73 | 0.0 | 0.0 | 0.00 | 0.17 | 0.17 | 99 | 1016.6 | |
| 20260504034630 | 73 | 0.0 | 0.0 | 0.00 | 0.17 | 0.17 | 99 | 1016.5 | |
| 20260504033525 | 73 | 0.0 | 0.0 | 0.00 | 0.17 | 0.17 | 99 | 1016.5 | |
| 20260504032518 | 73 | 0.0 | 0.0 | 0.00 | 0.17 | 0.17 | 99 | 1016.4 | |
| 20260504031533 | 73 | 0.0 | 0.0 | 0.00 | 0.17 | 0.17 | 99 | 1016.5 | |
| 20260504030529 | 73 | 0.0 | 0.0 | 0.00 | 0.17 | 0.17 | 99 | 1016.7 | |
| 20260504025523 | 73 | 0.0 | 0.0 | 0.00 | 0.17 | 0.17 | 99 | 1016.7 | |
| 20260504024537 | 73 | 0.0 | 0.0 | 0.00 | 0.17 | 0.17 | 99 | 1016.9 | |
| 20260504023532 | 73 | 0.0 | 0.0 | 0.00 | 0.17 | 0.17 | 99 | 1016.6 | |
| 20260504022547 | 73 | 0.0 | 0.0 | 0.00 | 0.17 | 0.17 | 99 | 1016.5 | |
| 20260504021521 | 73 | 48 | 0.0 | 2.0 | 0.00 | 0.17 | 0.17 | 99 | 1016.4 |
| 20260504020515 | 73 | 0.0 | 1.0 | 0.00 | 0.17 | 0.17 | 99 | 1016.4 | |
| 20260504015531 | 74 | 14 | 0.0 | 2.0 | 0.00 | 0.17 | 0.17 | 99 | 1016.4 |
| 20260504014606 | 74 | 0.0 | 1.0 | 0.00 | 0.17 | 0.17 | 99 | 1016.5 | |
| 20260504013521 | 74 | 0.0 | 1.0 | 0.00 | 0.17 | 0.17 | 99 | 1016.5 | |
| 20260504012535 | 74 | 0.0 | 1.0 | 0.00 | 0.17 | 0.17 | 99 | 1016.3 | |
| 20260504011610 | 74 | 0.0 | 0.0 | 0.00 | 0.17 | 0.17 | 99 | 1016.3 | |
| 20260504010525 | 74 | 0.0 | 0.0 | 0.00 | 0.17 | 0.17 | 99 | 1016.1 | |
| 20260504005519 | 74 | 0.0 | 1.0 | 0.00 | 0.17 | 0.17 | 99 | 1015.8 | |
| 20260504004534 | 74 | 0.0 | 0.0 | 0.00 | 0.17 | 0.17 | 99 | 1015.9 | |
| 20260504003530 | 74 | 0.0 | 0.0 | 0.00 | 0.17 | 0.17 | 99 | 1015.8 | |
| 20260504002523 | 74 | 0.0 | 0.0 | 0.00 | 0.17 | 0.17 | 99 | 1015.9 | |
| 20260504001515 | 74 | 0.0 | 0.0 | 0.00 | 0.17 | 0.17 | 99 | 1015.9 | |
| 20260504000528 | 74 | 0.0 | 0.0 | 0.00 | 0.17 | 0.17 | 99 | 1015.6 | |
| 20260503235521 | 74 | 0.0 | 0.0 | 0.00 | 0.17 | 0.17 | 99 | 1015.4 | |
| 20260503234553 | 74 | 0.0 | 0.0 | 0.00 | 0.17 | 0.17 | 99 | 1015.3 | |
| 20260503233526 | 74 | 0.0 | 0.0 | 0.05 | 0.17 | 0.17 | 99 | 1015.6 | |
| 20260503232539 | 74 | 0.0 | 0.0 | 0.13 | 0.17 | 0.17 | 99 | 1015.4 | |
| 20260503231532 | 75 | 318 | 0.0 | 1.0 | 0.13 | 0.17 | 0.17 | 99 | 1015.3 |
| 20260503230545 | 76 | 0.0 | 0.0 | 0.13 | 0.17 | 0.17 | 99 | 1015.4 | |
| 20260503225517 | 76 | 0.0 | 0.0 | 0.13 | 0.17 | 0.17 | 99 | 1015.3 | |
| 20260503224531 | 76 | 0.0 | 1.0 | 0.13 | 0.17 | 0.17 | 99 | 1015.4 | |
| 20260503223525 | 77 | 332 | 1.0 | 3.0 | 0.08 | 0.12 | 0.12 | 97 | 1014.8 |
| 20260503222537 | 77 | 323 | 0.0 | 2.0 | 0.00 | 0.04 | 0.04 | 95 | 1014.9 |
| 20260503221531 | 78 | 324 | 0.0 | 3.0 | 0.00 | 0.04 | 0.04 | 95 | 1015.1 |
| 20260503220525 | 78 | 321 | 0.0 | 3.0 | 0.00 | 0.04 | 0.04 | 94 | 1015.1 |
| 20260503215517 | 78 | 307 | 0.0 | 2.0 | 0.00 | 0.04 | 0.04 | 94 | 1015.1 |
| 20260503214532 | 79 | 295 | 0.0 | 2.0 | 0.00 | 0.04 | 0.04 | 91 | 1015.2 |
| 20260503213525 | 80 | 297 | 0.0 | 2.0 | 0.00 | 0.04 | 0.04 | 90 | 1015.2 |
| 20260503212517 | 80 | 192 | 0.0 | 1.0 | 0.00 | 0.04 | 0.04 | 89 | 1015.5 |
| 20260503211551 | 80 | 0.0 | 1.0 | 0.00 | 0.04 | 0.04 | 90 | 1015.4 | |
| 20260503210522 | 80 | 0.0 | 1.0 | 0.00 | 0.04 | 0.04 | 90 | 1015.6 |